Chicago, IL

2:16 AM CST on November 17, 2019 (GMT -0600)
Chicago-O'Hare International

Weather History for KORD - May, 2019

Change the Weather History Date:

Sunday, May 26, 2019

  Actual Average Record
Temperature  
Mean Temperature 64 °F 62 °F  
Max Temperature 73 °F 73 °F 94 °F (1911)
Min Temperature 54 °F 51 °F 34 °F (1983)
Degree Days  
Heating Degree Days 1 5  
Month to date heating degree days 229 203  
Since 1 July heating degree days 6418 6270  
Cooling Degree Days 0 2  
Month to date cooling degree days 19 32  
Year to date cooling degree days 23 42  
Growing Degree Days 14 (Base 50)    
Moisture  
Dew Point 53 °F    
Average Humidity 64    
Maximum Humidity 79    
Minimum Humidity 53    
Precipitation  
Precipitation T in 0.11 in 1.78 in (1913)
Month to date precipitation 5.41 3.08  
Year to date precipitation 18.29 12.48  
Snow  
Snow 0.00 in 0.00 in T in (1889)
Month to date snowfall T 0.0  
Since 1 July snowfall 49.5 36.3  
Snow Depth 0.00 in    
Sea Level Pressure  
Sea Level Pressure 30.02 in    
Wind  
Wind Speed 6 mph ()    
Max Wind Speed 15 mph    
Max Gust Speed 19 mph    
Visibility 10.0 miles    
Events Rain    
T = Trace of Precipitation, MM = Missing Value Source: Averaged Metar Reports

Daily Weather History Graph

Daily Weather History Graph

Search for Another Location

Airport or City:

Astronomy

May. 26, 2019 Rise Set
Actual Time 5:22 AM CDT 8:15 PM CDT
Civil Twilight 4:49 AM CDT 8:48 PM CDT
Nautical Twilight 4:07 AM CDT 9:30 PM CDT
Astronomical Twilight 3:18 AM CDT 10:19 PM CDT
Moon 1:45 AM CDT (5/26) 12:21 PM CDT (5/26)
Length of Visible Light 15h 59m
Length of Day
14h 53m
Waning Gibbous, 50% of the Moon is Illuminated
May 26
Waning Gibbous
Jun 3
New
Jun 10
First Quarter
Jun 17
Full
Jun 25
Last Quarter

Hourly Weather History & Observations

Time (CDT) Temp. Dew Point Humidity Pressure Visibility Wind Dir Wind Speed Gust Speed Precip Events Conditions
12:51 AM 71.1 °F 64.0 °F 78% 29.95 in 10.0 mi SW 5.8 mph - N/A   Mostly Cloudy
1:51 AM 72.0 °F 64.0 °F 76% 29.92 in 10.0 mi West 5.8 mph - N/A   Mostly Cloudy
2:51 AM 70.0 °F 60.1 °F 71% 29.92 in 10.0 mi WSW 9.2 mph - N/A   Mostly Cloudy
3:51 AM 69.1 °F 60.1 °F 73% 29.95 in 10.0 mi SW 8.1 mph - N/A   Mostly Cloudy
4:51 AM 68.0 °F 59.0 °F 73% 29.97 in 10.0 mi West 6.9 mph - N/A   Overcast
5:51 AM 68.0 °F 59.0 °F 73% 29.98 in 10.0 mi Calm Calm - N/A   Overcast
6:21 AM 66.0 °F 53.1 °F 63% 30.01 in 10.0 mi NNE 10.4 mph - N/A   Mostly Cloudy
6:51 AM 66.0 °F 50.0 °F 56% 30.02 in 10.0 mi NE 9.2 mph - 0.00 in   Overcast
7:51 AM 64.9 °F 50.0 °F 58% 30.03 in 10.0 mi NE 6.9 mph - 0.00 in Rain Light Rain
8:51 AM 64.9 °F 51.1 °F 61% 30.02 in 10.0 mi NNE 10.4 mph - 0.00 in   Overcast
9:00 AM 64.0 °F 50.0 °F 60% 30.03 in 10.0 mi NNE 8.1 mph - N/A   Overcast
9:51 AM 63.0 °F 52.0 °F 67% 30.03 in 10.0 mi North 3.5 mph - 0.00 in Rain Light Rain
10:51 AM 64.0 °F 52.0 °F 65% 30.02 in 10.0 mi Variable 3.5 mph - 0.00 in   Overcast
11:12 AM 64.0 °F 52.0 °F 65% 30.04 in 10.0 mi Calm Calm - N/A   Overcast
11:51 AM 64.9 °F 53.1 °F 65% 30.04 in 10.0 mi NW 3.5 mph - N/A   Overcast
12:51 PM 70.0 °F 53.1 °F 55% 30.05 in 10.0 mi NW 4.6 mph - N/A   Overcast
1:51 PM 71.1 °F 53.1 °F 53% 30.04 in 10.0 mi Calm Calm - N/A   Overcast
2:51 PM 72.0 °F 54.0 °F 53% 30.05 in 10.0 mi Calm Calm - N/A   Mostly Cloudy
3:51 PM 72.0 °F 55.0 °F 55% 30.04 in 10.0 mi ENE 8.1 mph - N/A   Scattered Clouds
4:51 PM 73.0 °F 55.0 °F 53% 30.04 in 10.0 mi NE 9.2 mph - N/A   Partly Cloudy
5:51 PM 68.0 °F 54.0 °F 61% 30.03 in 10.0 mi NE 13.8 mph - N/A   Partly Cloudy
6:51 PM 64.9 °F 51.1 °F 61% 30.04 in 10.0 mi NE 10.4 mph - N/A   Partly Cloudy
7:51 PM 61.0 °F 48.0 °F 62% 30.05 in 10.0 mi ENE 9.2 mph - N/A   Partly Cloudy
8:51 PM 59.0 °F 46.9 °F 64% 30.05 in 10.0 mi East 6.9 mph - N/A   Partly Cloudy
9:51 PM 57.9 °F 46.0 °F 65% 30.08 in 10.0 mi ENE 5.8 mph - N/A   Scattered Clouds
10:51 PM 55.9 °F 45.0 °F 67% 30.09 in 10.0 mi East 4.6 mph - N/A   Scattered Clouds
11:51 PM 54.0 °F 45.0 °F 72% 30.08 in 10.0 mi East 3.5 mph - N/A   Scattered Clouds